| time (UTC) | temp F | wind direction | speed knots | gust knots | rain 1hr in | rain 24hr in | rain mn in | humidity % | barometer mb |
| 20260507201520 | 53 | 294 | 0.9 | 1.7 | 0.08 | 1.81 | 0.36 | 99 | 1001.5 |
| 20260507201028 | 52 | 205 | 0.9 | 1.7 | 0.08 | 1.81 | 0.36 | 99 | 1001.4 |
| 20260507200509 | 52 | 191 | 0.0 | 1.7 | 0.08 | 1.81 | 0.36 | 99 | 1001.4 |
| 20260507200033 | 52 | 307 | 0.0 | 2.6 | 0.08 | 1.81 | 0.36 | 99 | 1001.5 |
| 20260507195518 | 52 | 209 | 0.9 | 2.6 | 0.08 | 1.81 | 0.36 | 99 | 1001.5 |
| 20260507195019 | 52 | 312 | 0.9 | 1.7 | 0.08 | 1.81 | 0.36 | 99 | 1001.5 |
| 20260507194547 | 52 | 300 | 0.0 | 1.7 | 0.08 | 1.81 | 0.36 | 99 | 1001.5 |
| 20260507194026 | 52 | 300 | 0.0 | 1.7 | 0.08 | 1.81 | 0.36 | 99 | 1001.6 |
| 20260507193527 | 52 | 205 | 0.0 | 2.6 | 0.08 | 1.81 | 0.36 | 99 | 1001.6 |
| 20260507193015 | 53 | 300 | 0.0 | 2.6 | 0.04 | 1.77 | 0.35 | 99 | 1001.6 |
| 20260507192535 | 53 | 116 | 0.9 | 2.6 | 0.04 | 1.77 | 0.35 | 99 | 1001.6 |
| 20260507192022 | 53 | 222 | 0.9 | 1.7 | 0.00 | 1.73 | 0.35 | 99 | 1001.5 |
| 20260507191523 | 53 | 221 | 0.0 | 1.7 | 0.00 | 1.73 | 0.35 | 100 | 1001.5 |
| 20260507191023 | 53 | 229 | 0.9 | 4.3 | 0.04 | 1.73 | 0.35 | 99 | 1001.5 |
| 20260507190530 | 53 | 248 | 1.7 | 4.3 | 0.04 | 1.73 | 0.35 | 99 | 1001.5 |
| 20260507190034 | 53 | 48 | 0.9 | 1.7 | 0.04 | 1.73 | 0.35 | 100 | 1001.4 |
| 20260507185511 | 53 | 308 | 0.9 | 3.5 | 0.04 | 1.73 | 0.35 | 100 | 1001.4 |
| 20260507185039 | 53 | 208 | 1.7 | 3.5 | 0.04 | 1.73 | 0.35 | 100 | 1001.3 |
| 20260507184547 | 53 | 200 | 0.9 | 1.7 | 0.12 | 1.73 | 0.35 | 100 | 1001.4 |
| 20260507184007 | 52 | 213 | 0.9 | 1.7 | 0.12 | 1.73 | 0.35 | 100 | 1001.4 |
| 20260507183508 | 52 | 216 | 0.9 | 1.7 | 0.12 | 1.73 | 0.35 | 100 | 1001.6 |
| 20260507183017 | 52 | 217 | 0.9 | 1.7 | 0.16 | 1.73 | 0.35 | 100 | 1001.6 |
| 20260507182518 | 52 | 220 | 0.9 | 2.6 | 0.20 | 1.73 | 0.35 | 100 | 1001.5 |
| 20260507182047 | 52 | 205 | 0.9 | 2.6 | 0.20 | 1.73 | 0.35 | 100 | 1001.4 |
| 20260507181527 | 52 | 206 | 0.9 | 2.6 | 0.20 | 1.73 | 0.35 | 100 | 1001.4 |
| 20260507181008 | 52 | 200 | 0.9 | 2.6 | 0.20 | 1.69 | 0.34 | 100 | 1001.6 |
| 20260507180536 | 52 | 239 | 0.0 | 3.5 | 0.20 | 1.69 | 0.34 | 100 | 1000.6 |
| 20260507180044 | 52 | 240 | 0.0 | 3.5 | 0.20 | 1.69 | 0.34 | 100 | 1001.2 |
| 20260507175520 | 52 | 192 | 1.7 | 6.1 | 0.20 | 1.69 | 0.34 | 100 | 1001.8 |
| 20260507175048 | 52 | 146 | 2.6 | 6.1 | 0.16 | 1.65 | 0.33 | 100 | 1002.3 |
| 20260507174508 | 52 | 223 | 1.7 | 4.3 | 0.16 | 1.61 | 0.32 | 100 | 1002.8 |
| 20260507174009 | 52 | 199 | 1.7 | 6.1 | 0.16 | 1.61 | 0.32 | 100 | 1002.0 |
| 20260507173534 | 52 | 229 | 3.5 | 6.1 | 0.20 | 1.61 | 0.32 | 100 | 1001.6 |
| 20260507173015 | 52 | 167 | 2.6 | 7.0 | 0.20 | 1.57 | 0.31 | 100 | 1001.1 |
| 20260507172516 | 52 | 201 | 3.5 | 7.0 | 0.16 | 1.54 | 0.31 | 100 | 1001.1 |
| 20260507172025 | 52 | 199 | 2.6 | 5.2 | 0.20 | 1.54 | 0.31 | 99 | 1001.1 |
| 20260507171522 | 52 | 206 | 1.7 | 4.3 | 0.24 | 1.54 | 0.31 | 99 | 1001.1 |
| 20260507171022 | 52 | 212 | 1.7 | 4.3 | 0.28 | 1.50 | 0.30 | 100 | 1000.8 |
| 20260507170530 | 52 | 204 | 2.6 | 4.3 | 0.31 | 1.50 | 0.30 | 99 | 1001.4 |
| 20260507170033 | 53 | 237 | 2.6 | 4.3 | 0.35 | 1.50 | 0.30 | 99 | 1001.7 |
| 20260507165512 | 53 | 207 | 2.6 | 8.7 | 0.43 | 1.50 | 0.30 | 100 | 1001.7 |
| 20260507165021 | 53 | 229 | 3.5 | 8.7 | 0.51 | 1.50 | 0.30 | 100 | 1002.0 |
| 20260507164541 | 53 | 172 | 2.6 | 6.1 | 0.51 | 1.46 | 0.29 | 99 | 1001.2 |
| 20260507164029 | 53 | 210 | 2.6 | 4.3 | 0.59 | 1.46 | 0.29 | 99 | 1001.9 |
| 20260507163537 | 53 | 212 | 1.7 | 5.2 | 0.59 | 1.42 | 0.28 | 100 | 1001.9 |
| 20260507163037 | 53 | 203 | 2.6 | 5.2 | 0.63 | 1.38 | 0.28 | 99 | 1002.3 |
| 20260507162544 | 53 | 203 | 1.7 | 4.3 | 0.67 | 1.38 | 0.28 | 100 | 1002.2 |
| 20260507162025 | 53 | 240 | 2.6 | 5.2 | 0.67 | 1.34 | 0.27 | 100 | 1002.1 |
| 20260507161534 | 53 | 203 | 3.5 | 5.2 | 0.67 | 1.26 | 0.25 | 100 | 1002.4 |
| 20260507161014 | 53 | 243 | 1.7 | 3.5 | 0.63 | 1.22 | 0.24 | 100 | 1002.3 |
| 20260507160515 | 53 | 214 | 1.7 | 3.5 | 0.67 | 1.18 | 0.24 | 99 | 1002.1 |
| 20260507160045 | 53 | 243 | 1.7 | 3.5 | 0.67 | 1.14 | 0.23 | 99 | 1002.1 |
| 20260507155524 | 53 | 230 | 1.7 | 4.3 | 0.59 | 1.06 | 0.21 | 99 | 1002.4 |
| 20260507155032 | 53 | 207 | 1.7 | 4.3 | 0.55 | 0.98 | 0.20 | 99 | 1002.6 |
| 20260507154514 | 53 | 207 | 1.7 | 7.0 | 0.51 | 0.94 | 0.19 | 99 | 1002.4 |
| 20260507154013 | 53 | 214 | 2.6 | 7.8 | 0.47 | 0.87 | 0.17 | 99 | 1002.7 |
| 20260507153514 | 53 | 237 | 2.6 | 4.3 | 0.47 | 0.83 | 0.17 | 99 | 1002.7 |
| 20260507153022 | 53 | 272 | 2.6 | 5.2 | 0.47 | 0.75 | 0.15 | 99 | 1002.9 |
| 20260507152523 | 53 | 210 | 3.5 | 6.1 | 0.47 | 0.71 | 0.14 | 99 | 1003.1 |
| 20260507152051 | 53 | 231 | 3.5 | 7.0 | 0.43 | 0.67 | 0.13 | 98 | 1003.4 |
| 20260507151510 | 53 | 231 | 4.3 | 8.7 | 0.35 | 0.59 | 0.12 | 98 | 1003.3 |
| 20260507151008 | 53 | 203 | 4.3 | 8.7 | 0.31 | 0.55 | 0.11 | 98 | 1003.3 |
| 20260507150517 | 53 | 233 | 3.5 | 4.3 | 0.28 | 0.51 | 0.10 | 99 | 1003.4 |
| 20260507150036 | 53 | 198 | 2.6 | 4.3 | 0.24 | 0.47 | 0.09 | 99 | 1003.5 |
| 20260507145541 | 53 | 247 | 2.6 | 4.3 | 0.24 | 0.47 | 0.09 | 98 | 1003.5 |
| 20260507145022 | 54 | 231 | 2.6 | 4.3 | 0.20 | 0.43 | 0.09 | 98 | 1003.4 |
| 20260507144530 | 54 | 229 | 2.6 | 5.2 | 0.20 | 0.43 | 0.09 | 98 | 1003.3 |
| 20260507144032 | 54 | 207 | 1.7 | 5.2 | 0.16 | 0.39 | 0.08 | 98 | 1003.4 |
| 20260507143511 | 54 | 239 | 3.5 | 6.1 | 0.12 | 0.35 | 0.07 | 98 | 1003.4 |
| 20260507143019 | 54 | 203 | 3.5 | 7.0 | 0.04 | 0.28 | 0.06 | 98 | 1003.3 |
| 20260507142548 | 54 | 167 | 2.6 | 7.8 | 0.00 | 0.24 | 0.05 | 98 | 1003.3 |
| 20260507142008 | 54 | 190 | 3.5 | 7.0 | 0.00 | 0.24 | 0.05 | 97 | 1003.3 |
| 20260507141510 | 54 | 229 | 3.5 | 10.4 | 0.00 | 0.24 | 0.05 | 97 | 1003.4 |
| 20260507141010 | 54 | 195 | 3.5 | 10.4 | 0.00 | 0.24 | 0.05 | 97 | 1003.2 |
| 20260507140539 | 54 | 209 | 3.5 | 7.8 | 0.00 | 0.24 | 0.05 | 97 | 1003.2 |
| 20260507140048 | 54 | 201 | 4.3 | 7.8 | 0.00 | 0.24 | 0.05 | 97 | 1003.2 |
| 20260507135546 | 53 | 194 | 3.5 | 7.8 | 0.00 | 0.24 | 0.05 | 97 | 1003.1 |
| 20260507135014 | 54 | 207 | 4.3 | 7.8 | 0.00 | 0.24 | 0.05 | 97 | 1003.3 |
| 20260507134513 | 54 | 198 | 3.5 | 7.8 | 0.00 | 0.24 | 0.05 | 97 | 1003.3 |
| 20260507134013 | 53 | 234 | 5.2 | 7.8 | 0.00 | 0.24 | 0.05 | 97 | 1003.5 |
| 20260507133522 | 53 | 207 | 4.3 | 9.6 | 0.00 | 0.24 | 0.05 | 97 | 1003.6 |
| 20260507133023 | 54 | 221 | 4.3 | 9.6 | 0.00 | 0.24 | 0.05 | 97 | 1003.6 |
| 20260507132525 | 54 | 223 | 3.5 | 8.7 | 0.00 | 0.24 | 0.05 | 97 | 1003.7 |
| 20260507132033 | 54 | 238 | 4.3 | 8.7 | 0.00 | 0.24 | 0.05 | 97 | 1003.6 |
| 20260507131514 | 54 | 242 | 5.2 | 8.7 | 0.00 | 0.24 | 0.05 | 96 | 1003.7 |
| 20260507131015 | 54 | 214 | 4.3 | 8.7 | 0.00 | 0.24 | 0.05 | 97 | 1003.6 |
| 20260507130516 | 54 | 195 | 5.2 | 10.4 | 0.00 | 0.24 | 0.05 | 97 | 1003.4 |
| 20260507130047 | 54 | 209 | 4.3 | 10.4 | 0.00 | 0.24 | 0.05 | 97 | 1003.7 |
| 20260507125534 | 54 | 215 | 5.2 | 8.7 | 0.00 | 0.24 | 0.05 | 97 | 1003.5 |
| 20260507125016 | 54 | 278 | 5.2 | 9.6 | 0.00 | 0.24 | 0.05 | 97 | 1003.4 |
| 20260507124516 | 54 | 245 | 5.2 | 9.6 | 0.00 | 0.24 | 0.05 | 97 | 1003.4 |
| 20260507124045 | 54 | 174 | 5.2 | 11.3 | 0.00 | 0.24 | 0.05 | 97 | 1003.7 |
| 20260507123526 | 54 | 200 | 6.1 | 11.3 | 0.00 | 0.24 | 0.05 | 96 | 1003.9 |
| 20260507123033 | 54 | 237 | 4.3 | 10.4 | 0.00 | 0.24 | 0.05 | 96 | 1004.0 |
| 20260507122514 | 54 | 254 | 5.2 | 10.4 | 0.04 | 0.24 | 0.05 | 96 | 1003.8 |
| 20260507122015 | 54 | 200 | 5.2 | 12.2 | 0.04 | 0.24 | 0.05 | 96 | 1003.7 |
| 20260507121517 | 54 | 203 | 6.1 | 13.0 | 0.08 | 0.24 | 0.05 | 96 | 1003.9 |
| 20260507121024 | 54 | 205 | 6.1 | 13.0 | 0.08 | 0.24 | 0.05 | 96 | 1003.8 |
| 20260507120525 | 54 | 228 | 6.1 | 11.3 | 0.08 | 0.24 | 0.05 | 96 | 1003.3 |
| 20260507120035 | 54 | 225 | 7.0 | 12.2 | 0.08 | 0.24 | 0.05 | 97 | 1003.0 |
| 20260507115535 | 54 | 200 | 7.0 | 12.2 | 0.08 | 0.24 | 0.05 | 97 | 1003.1 |
| 20260507115021 | 54 | 187 | 6.1 | 12.2 | 0.08 | 0.24 | 0.05 | 97 | 1003.5 |
| 20260507114522 | 53 | 247 | 7.0 | 13.0 | 0.08 | 0.24 | 0.05 | 97 | 1003.6 |
| 20260507114051 | 53 | 255 | 6.1 | 13.0 | 0.08 | 0.24 | 0.05 | 96 | 1003.7 |
| 20260507113527 | 53 | 201 | 5.2 | 12.2 | 0.08 | 0.24 | 0.05 | 96 | 1003.8 |
| 20260507113027 | 54 | 197 | 7.0 | 12.2 | 0.08 | 0.24 | 0.05 | 96 | 1003.7 |
| 20260507112517 | 54 | 225 | 7.0 | 13.9 | 0.04 | 0.20 | 0.04 | 96 | 1003.8 |
| 20260507112016 | 54 | 181 | 7.0 | 13.9 | 0.04 | 0.20 | 0.04 | 96 | 1003.8 |
| 20260507111517 | 54 | 195 | 7.0 | 12.2 | 0.00 | 0.16 | 0.03 | 97 | 1003.7 |
| 20260507111025 | 53 | 216 | 5.2 | 13.0 | 0.00 | 0.16 | 0.03 | 96 | 1003.8 |
| 20260507110547 | 53 | 193 | 7.0 | 13.9 | 0.00 | 0.16 | 0.03 | 96 | 1003.8 |
| 20260507110036 | 53 | 191 | 7.0 | 13.9 | 0.00 | 0.16 | 0.03 | 95 | 1003.9 |
| 20260507105514 | 53 | 226 | 7.0 | 13.9 | 0.00 | 0.16 | 0.03 | 95 | 1003.9 |
| 20260507105016 | 53 | 214 | 7.0 | 13.9 | 0.00 | 0.16 | 0.03 | 95 | 1004.0 |
| 20260507104523 | 53 | 200 | 7.0 | 13.0 | 0.00 | 0.16 | 0.03 | 95 | 1004.1 |
| 20260507104024 | 53 | 228 | 7.0 | 13.0 | 0.00 | 0.16 | 0.03 | 95 | 1004.1 |
| 20260507103531 | 53 | 142 | 7.0 | 12.2 | 0.00 | 0.16 | 0.03 | 94 | 1004.0 |
| 20260507103033 | 53 | 207 | 7.0 | 12.2 | 0.00 | 0.16 | 0.03 | 94 | 1004.1 |
| 20260507102539 | 53 | 209 | 6.1 | 10.4 | 0.00 | 0.16 | 0.03 | 94 | 1004.2 |
| 20260507102019 | 53 | 187 | 6.1 | 14.8 | 0.00 | 0.16 | 0.03 | 93 | 1004.3 |
| 20260507101520 | 53 | 180 | 6.1 | 14.8 | 0.00 | 0.16 | 0.03 | 93 | 1004.4 |
| 20260507101029 | 52 | 243 | 5.2 | 11.3 | 0.00 | 0.16 | 0.03 | 93 | 1004.5 |
| 20260507100509 | 52 | 184 | 4.3 | 9.6 | 0.00 | 0.16 | 0.03 | 93 | 1004.5 |
| 20260507100037 | 52 | 211 | 5.2 | 10.4 | 0.00 | 0.16 | 0.03 | 93 | 1004.5 |
| 20260507095543 | 52 | 173 | 5.2 | 10.4 | 0.00 | 0.16 | 0.03 | 93 | 1004.7 |
| 20260507095024 | 52 | 207 | 6.1 | 9.6 | 0.00 | 0.16 | 0.03 | 93 | 1004.9 |
| 20260507094553 | 52 | 202 | 5.2 | 11.3 | 0.00 | 0.16 | 0.03 | 92 | 1004.8 |
| 20260507094014 | 52 | 278 | 5.2 | 12.2 | 0.00 | 0.16 | 0.03 | 92 | 1004.8 |
| 20260507093534 | 53 | 116 | 5.2 | 13.0 | 0.00 | 0.16 | 0.03 | 91 | 1004.7 |
| 20260507093022 | 53 | 176 | 6.1 | 13.0 | 0.00 | 0.16 | 0.03 | 91 | 1004.7 |
| 20260507092522 | 53 | 216 | 6.1 | 12.2 | 0.00 | 0.16 | 0.03 | 91 | 1004.8 |
| 20260507092031 | 53 | 210 | 5.2 | 12.2 | 0.00 | 0.16 | 0.03 | 90 | 1004.7 |
| 20260507091527 | 53 | 211 | 6.1 | 13.0 | 0.00 | 0.16 | 0.03 | 91 | 1004.7 |
| 20260507091008 | 53 | 212 | 7.0 | 13.0 | 0.00 | 0.16 | 0.03 | 91 | 1004.9 |
| 20260507090516 | 53 | 148 | 7.0 | 12.2 | 0.00 | 0.16 | 0.03 | 91 | 1005.0 |
| 20260507090040 | 53 | 203 | 7.0 | 16.5 | 0.00 | 0.16 | 0.03 | 91 | 1005.0 |
| 20260507085525 | 52 | 189 | 7.0 | 16.5 | 0.00 | 0.16 | 0.03 | 91 | 1004.9 |
| 20260507085047 | 52 | 161 | 6.1 | 13.0 | 0.00 | 0.16 | 0.03 | 92 | 1005.0 |
| 20260507084535 | 52 | 195 | 6.1 | 13.0 | 0.00 | 0.16 | 0.03 | 91 | 1005.2 |
| 20260507084013 | 52 | 192 | 7.0 | 12.2 | 0.00 | 0.16 | 0.03 | 91 | 1005.3 |
| 20260507083513 | 52 | 193 | 6.1 | 12.2 | 0.00 | 0.16 | 0.03 | 91 | 1005.4 |
| 20260507083021 | 52 | 167 | 6.1 | 12.2 | 0.00 | 0.16 | 0.03 | 91 | 1005.3 |
| 20260507082522 | 53 | 191 | 6.1 | 12.2 | 0.04 | 0.16 | 0.03 | 90 | 1005.6 |
| 20260507082023 | 53 | 158 | 5.2 | 12.2 | 0.04 | 0.16 | 0.03 | 90 | 1005.8 |
| 20260507081532 | 53 | 201 | 5.2 | 11.3 | 0.04 | 0.16 | 0.03 | 90 | 1006.0 |
| 20260507081032 | 53 | 217 | 6.1 | 9.6 | 0.04 | 0.16 | 0.03 | 90 | 1006.1 |
| 20260507080539 | 53 | 203 | 6.1 | 10.4 | 0.04 | 0.16 | 0.03 | 90 | 1006.3 |
| 20260507080049 | 53 | 200 | 6.1 | 11.3 | 0.04 | 0.16 | 0.03 | 90 | 1006.4 |
| 20260507075527 | 53 | 186 | 7.0 | 12.2 | 0.04 | 0.16 | 0.03 | 91 | 1006.5 |
| 20260507075036 | 53 | 203 | 5.2 | 11.3 | 0.04 | 0.16 | 0.03 | 91 | 1006.6 |
| 20260507074517 | 52 | 182 | 6.1 | 11.3 | 0.04 | 0.16 | 0.03 | 91 | 1006.5 |
| 20260507074018 | 52 | 186 | 5.2 | 13.0 | 0.08 | 0.16 | 0.03 | 91 | 1006.7 |
| 20260507073525 | 52 | 205 | 7.0 | 13.0 | 0.08 | 0.16 | 0.03 | 91 | 1006.7 |
| 20260507073026 | 52 | 211 | 5.2 | 10.4 | 0.16 | 0.16 | 0.03 | 92 | 1006.8 |
| 20260507072528 | 52 | 207 | 5.2 | 10.4 | 0.12 | 0.12 | 0.02 | 93 | 1006.9 |
| 20260507072008 | 52 | 200 | 5.2 | 10.4 | 0.12 | 0.12 | 0.02 | 93 | 1007.1 |
| 20260507071517 | 51 | 158 | 4.3 | 10.4 | 0.12 | 0.12 | 0.02 | 93 | 1007.4 |
| 20260507071014 | 51 | 209 | 3.5 | 10.4 | 0.12 | 0.12 | 0.02 | 92 | 1007.0 |
| 20260507070516 | 52 | 211 | 4.3 | 10.4 | 0.12 | 0.12 | 0.02 | 91 | 1007.3 |
| 20260507070113 | 52 | 208 | 5.2 | 10.4 | 0.12 | 0.12 | 0.02 | 92 | 1007.4 |
| 20260507065510 | 53 | 199 | 4.3 | 9.6 | 0.12 | 0.12 | 0.02 | 93 | 1007.7 |
| 20260507065011 | 53 | 166 | 4.3 | 11.3 | 0.12 | 0.12 | 0.02 | 93 | 1007.7 |
| 20260507064511 | 53 | 186 | 4.3 | 11.3 | 0.12 | 0.12 | 0.02 | 92 | 1007.3 |
| 20260507064040 | 53 | 197 | 5.2 | 11.3 | 0.08 | 0.08 | 0.02 | 91 | 1007.8 |
| 20260507063520 | 53 | 201 | 5.2 | 11.3 | 0.08 | 0.08 | 0.02 | 90 | 1008.2 |
| 20260507063027 | 54 | 196 | 5.2 | 8.7 | 0.00 | 0.00 | 0.00 | 89 | 1008.4 |
| 20260507062528 | 54 | 237 | 5.2 | 10.4 | 0.00 | 0.00 | 0.00 | 88 | 1008.3 |
| 20260507062009 | 54 | 266 | 6.1 | 12.2 | 0.00 | 0.00 | 0.00 | 87 | 1008.4 |
| 20260507061517 | 55 | 250 | 5.2 | 12.2 | 0.00 | 0.00 | 0.00 | 86 | 1008.6 |
| 20260507061017 | 55 | 178 | 4.3 | 10.4 | 0.00 | 0.00 | 0.00 | 85 | 1008.7 |
| 20260507060546 | 55 | 221 | 4.3 | 10.4 | 0.00 | 0.00 | 0.00 | 85 | 1008.9 |
| 20260507060044 | 55 | 210 | 6.1 | 10.4 | 0.00 | 0.00 | 0.00 | 85 | 1008.9 |
| 20260507055530 | 55 | 214 | 3.5 | 11.3 | 0.00 | 0.00 | 0.00 | 86 | 1008.9 |
| 20260507055010 | 55 | 217 | 4.3 | 11.3 | 0.00 | 0.00 | 0.00 | 86 | 1009.0 |
| 20260507054510 | 55 | 201 | 4.3 | 12.2 | 0.00 | 0.00 | 0.00 | 86 | 1009.0 |
| 20260507054018 | 55 | 195 | 7.8 | 14.8 | 0.00 | 0.00 | 0.00 | 86 | 1009.1 |
| 20260507053543 | 54 | 191 | 7.0 | 14.8 | 0.00 | 0.00 | 0.00 | 87 | 1009.2 |
| 20260507053022 | 53 | 230 | 5.2 | 11.3 | 0.00 | 0.00 | 0.00 | 88 | 1009.4 |
| 20260507052523 | 53 | 198 | 4.3 | 9.6 | 0.00 | 0.00 | 0.00 | 87 | 1009.3 |
| 20260507052030 | 54 | 198 | 4.3 | 8.7 | 0.00 | 0.00 | 0.00 | 87 | 1009.3 |
| 20260507051516 | 54 | 153 | 4.3 | 10.4 | 0.00 | 0.00 | 0.00 | 87 | 1008.9 |
| 20260507051016 | 54 | 188 | 5.2 | 10.4 | 0.00 | 0.00 | 0.00 | 87 | 1009.2 |
| 20260507050514 | 54 | 205 | 4.3 | 9.6 | 0.00 | 0.00 | 0.00 | 87 | 1009.7 |
| 20260507050100 | 54 | 201 | 3.5 | 9.6 | 0.00 | 0.00 | 0.00 | 87 | 1009.9 |
| 20260507045509 | 54 | 205 | 5.2 | 8.7 | 0.00 | 0.00 | 0.00 | 87 | 1010.1 |
| 20260507045054 | 54 | 190 | 4.3 | 8.7 | 0.00 | 0.00 | 0.00 | 87 | 1010.2 |
| 20260507044514 | 55 | 184 | 4.3 | 7.8 | 0.00 | 0.00 | 0.00 | 86 | 1010.3 |
| 20260507044016 | 55 | 212 | 3.5 | 9.6 | 0.00 | 0.00 | 0.00 | 87 | 1010.3 |
| 20260507043516 | 55 | 199 | 6.1 | 9.6 | 0.00 | 0.00 | 0.00 | 86 | 1010.5 |
| 20260507043024 | 55 | 209 | 5.2 | 10.4 | 0.00 | 0.00 | 0.00 | 87 | 1010.5 |
| 20260507042509 | 55 | 148 | 5.2 | 10.4 | 0.00 | 0.00 | 0.00 | 87 | 1010.6 |
| 20260507042055 | 55 | 196 | 5.2 | 11.3 | 0.00 | 0.00 | 0.00 | 87 | 1010.6 |
| 20260507041513 | 55 | 158 | 6.1 | 11.3 | 0.00 | 0.00 | 0.00 | 87 | 1010.9 |
| 20260507041015 | 55 | 203 | 6.1 | 10.4 | 0.00 | 0.00 | 0.00 | 87 | 1010.9 |
| 20260507040514 | 55 | 196 | 6.1 | 10.4 | 0.00 | 0.00 | 0.00 | 87 | 1010.8 |
| 20260507040044 | 55 | 195 | 5.2 | 8.7 | 0.00 | 0.00 | 0.00 | 87 | 1010.9 |
| 20260507035531 | 55 | 193 | 5.2 | 7.8 | 0.00 | 0.00 | 0.00 | 87 | 1010.9 |
| 20260507035027 | 55 | 172 | 4.3 | 7.8 | 0.00 | 0.00 | 0.00 | 87 | 1011.0 |
| 20260507034533 | 55 | 199 | 3.5 | 9.6 | 0.00 | 0.00 | 0.00 | 86 | 1010.9 |
| 20260507034013 | 56 | 210 | 5.2 | 9.6 | 0.00 | 0.00 | 0.00 | 86 | 1011.4 |
| 20260507033514 | 56 | 192 | 3.5 | 9.6 | 0.00 | 0.00 | 0.00 | 86 | 1011.1 |
| 20260507033016 | 56 | 170 | 4.3 | 9.6 | 0.00 | 0.00 | 0.00 | 86 | 1011.2 |
| 20260507032524 | 56 | 173 | 5.2 | 8.7 | 0.00 | 0.00 | 0.00 | 86 | 1011.2 |
| 20260507032009 | 56 | 207 | 3.5 | 12.2 | 0.00 | 0.00 | 0.00 | 86 | 1011.3 |
| 20260507031532 | 56 | 194 | 5.2 | 12.2 | 0.00 | 0.00 | 0.00 | 86 | 1011.4 |
| 20260507031013 | 57 | 240 | 5.2 | 10.4 | 0.00 | 0.00 | 0.00 | 86 | 1011.8 |
| 20260507030513 | 57 | 187 | 6.1 | 10.4 | 0.00 | 0.00 | 0.00 | 86 | 1011.6 |
| 20260507030104 | 57 | 205 | 5.2 | 13.0 | 0.00 | 0.00 | 0.00 | 86 | 1011.7 |
| 20260507025530 | 57 | 203 | 6.1 | 13.0 | 0.00 | 0.00 | 0.00 | 86 | 1011.9 |
| 20260507025009 | 57 | 212 | 5.2 | 15.6 | 0.00 | 0.00 | 0.00 | 86 | 1012.1 |
| 20260507024511 | 57 | 239 | 5.2 | 15.6 | 0.00 | 0.00 | 0.00 | 86 | 1012.1 |
| 20260507024012 | 57 | 198 | 6.1 | 10.4 | 0.00 | 0.00 | 0.00 | 86 | 1012.2 |
| 20260507023520 | 57 | 179 | 5.2 | 9.6 | 0.00 | 0.00 | 0.00 | 86 | 1012.3 |
| 20260507023021 | 57 | 211 | 5.2 | 10.4 | 0.00 | 0.00 | 0.00 | 86 | 1012.4 |
| 20260507022526 | 57 | 224 | 5.2 | 11.3 | 0.00 | 0.00 | 0.00 | 86 | 1012.4 |
| 20260507022043 | 57 | 191 | 6.1 | 11.3 | 0.00 | 0.00 | 0.00 | 86 | 1012.3 |
| 20260507021530 | 57 | 221 | 5.2 | 10.4 | 0.00 | 0.00 | 0.00 | 86 | 1012.5 |
| 20260507021011 | 57 | 223 | 5.2 | 10.4 | 0.00 | 0.00 | 0.00 | 86 | 1012.7 |
| 20260507020512 | 58 | 194 | 6.1 | 10.4 | 0.00 | 0.00 | 0.00 | 86 | 1012.6 |
| 20260507020042 | 58 | 204 | 5.2 | 8.7 | 0.00 | 0.00 | 0.00 | 86 | 1012.6 |
| 20260507015521 | 58 | 216 | 5.2 | 10.4 | 0.00 | 0.00 | 0.00 | 86 | 1012.8 |
| 20260507015022 | 58 | 236 | 5.2 | 10.4 | 0.00 | 0.00 | 0.00 | 86 | 1012.7 |
| 20260507014514 | 58 | 204 | 5.2 | 8.7 | 0.00 | 0.00 | 0.00 | 86 | 1012.9 |
| 20260507014015 | 58 | 269 | 5.2 | 11.3 | 0.00 | 0.00 | 0.00 | 86 | 1012.9 |
| 20260507013515 | 58 | 263 | 4.3 | 11.3 | 0.00 | 0.00 | 0.00 | 86 | 1012.8 |
| 20260507013024 | 58 | 235 | 5.2 | 11.3 | 0.00 | 0.00 | 0.00 | 86 | 1012.8 |
| 20260507012542 | 58 | 192 | 5.2 | 11.3 | 0.00 | 0.00 | 0.00 | 86 | 1012.8 |
| 20260507012030 | 58 | 192 | 5.2 | 11.3 | 0.00 | 0.00 | 0.00 | 86 | 1012.9 |
| 20260507011514 | 58 | 217 | 5.2 | 9.6 | 0.00 | 0.00 | 0.00 | 86 | 1013.0 |
| 20260507011015 | 58 | 223 | 5.2 | 9.6 | 0.00 | 0.00 | 0.00 | 85 | 1013.1 |
| 20260507010516 | 58 | 198 | 5.2 | 8.7 | 0.00 | 0.00 | 0.00 | 85 | 1013.1 |
| 20260507010046 | 58 | 210 | 4.3 | 8.7 | 0.00 | 0.00 | 0.00 | 85 | 1013.2 |
| 20260507005532 | 59 | 210 | 5.2 | 10.4 | 0.00 | 0.00 | 0.00 | 85 | 1013.3 |
| 20260507005033 | 58 | 164 | 5.2 | 9.6 | 0.00 | 0.00 | 0.00 | 85 | 1013.2 |
| 20260507004513 | 58 | 223 | 5.2 | 9.6 | 0.00 | 0.00 | 0.00 | 85 | 1013.3 |
| 20260507004021 | 58 | 227 | 5.2 | 9.6 | 0.00 | 0.00 | 0.00 | 85 | 1013.3 |
| 20260507003522 | 58 | 203 | 5.2 | 9.6 | 0.00 | 0.00 | 0.00 | 85 | 1013.2 |
| 20260507003021 | 58 | 205 | 5.2 | 10.4 | 0.00 | 0.00 | 0.00 | 85 | 1013.3 |
| 20260507002530 | 59 | 212 | 5.2 | 10.4 | 0.00 | 0.00 | 0.00 | 85 | 1013.3 |
| 20260507002010 | 59 | 186 | 5.2 | 10.4 | 0.00 | 0.00 | 0.00 | 84 | 1013.2 |
| 20260507001510 | 59 | 223 | 5.2 | 10.4 | 0.00 | 0.00 | 0.00 | 84 | 1013.1 |
| 20260507001019 | 59 | 221 | 5.2 | 11.3 | 0.00 | 0.00 | 0.00 | 84 | 1013.2 |
| 20260507000519 | 59 | 242 | 5.2 | 11.3 | 0.00 | 0.00 | 0.00 | 83 | 1013.1 |
| 20260507000049 | 59 | 232 | 5.2 | 9.6 | 0.00 | 0.00 | 0.00 | 83 | 1013.0 |
| 20260506235528 | 60 | 308 | 5.2 | 9.6 | 0.00 | 0.00 | 0.00 | 83 | 1012.9 |
| 20260506235009 | 60 | 158 | 4.3 | 10.4 | 0.00 | 0.00 | 0.00 | 83 | 1012.9 |
| 20260506234510 | 60 | 234 | 5.2 | 10.4 | 0.00 | 0.00 | 0.00 | 83 | 1012.9 |
| 20260506234018 | 60 | 201 | 5.2 | 12.2 | 0.00 | 0.00 | 0.00 | 83 | 1012.8 |
| 20260506233518 | 60 | 236 | 7.0 | 12.2 | 0.00 | 0.00 | 0.00 | 82 | 1012.6 |
| 20260506233019 | 60 | 195 | 6.1 | 11.3 | 0.00 | 0.00 | 0.00 | 82 | 1012.7 |
| 20260506232528 | 60 | 198 | 6.1 | 10.4 | 0.00 | 0.00 | 0.00 | 82 | 1012.6 |
| 20260506232056 | 60 | 173 | 5.2 | 11.3 | 0.00 | 0.00 | 0.00 | 82 | 1012.7 |
| 20260506231537 | 60 | 273 | 5.2 | 13.0 | 0.00 | 0.00 | 0.00 | 81 | 1012.7 |
| 20260506231016 | 60 | 192 | 6.1 | 13.0 | 0.00 | 0.00 | 0.00 | 81 | 1012.7 |
| 20260506230525 | 60 | 221 | 5.2 | 11.3 | 0.00 | 0.00 | 0.00 | 81 | 1012.8 |
| 20260506230115 | 60 | 229 | 6.1 | 11.3 | 0.00 | 0.00 | 0.00 | 81 | 1012.6 |
| 20260506225513 | 60 | 167 | 5.2 | 11.3 | 0.00 | 0.00 | 0.00 | 80 | 1012.6 |
| 20260506225013 | 61 | 184 | 5.2 | 9.6 | 0.00 | 0.00 | 0.00 | 80 | 1012.6 |
| 20260506224523 | 61 | 149 | 5.2 | 10.4 | 0.00 | 0.00 | 0.00 | 79 | 1012.6 |
| 20260506224023 | 61 | 198 | 5.2 | 12.2 | 0.00 | 0.00 | 0.00 | 79 | 1012.7 |
| 20260506223521 | 61 | 191 | 7.0 | 12.2 | 0.00 | 0.00 | 0.00 | 79 | 1012.6 |
| 20260506223049 | 61 | 252 | 5.2 | 12.2 | 0.00 | 0.00 | 0.00 | 78 | 1012.7 |
| 20260506222529 | 62 | 178 | 6.1 | 15.6 | 0.00 | 0.00 | 0.00 | 77 | 1012.6 |
| 20260506222009 | 62 | 252 | 6.1 | 11.3 | 0.00 | 0.00 | 0.00 | 77 | 1012.5 |
| 20260506221517 | 62 | 297 | 6.1 | 12.2 | 0.00 | 0.00 | 0.00 | 77 | 1012.6 |
| 20260506221018 | 62 | 217 | 6.1 | 12.2 | 0.00 | 0.00 | 0.00 | 76 | 1012.5 |
| 20260506220547 | 62 | 230 | 5.2 | 9.6 | 0.00 | 0.00 | 0.00 | 76 | 1012.5 |
| 20260506220057 | 63 | 202 | 6.1 | 9.6 | 0.00 | 0.00 | 0.00 | 75 | 1012.4 |
| 20260506215514 | 63 | 231 | 5.2 | 9.6 | 0.00 | 0.00 | 0.00 | 75 | 1012.4 |
| 20260506215016 | 63 | 204 | 5.2 | 10.4 | 0.00 | 0.00 | 0.00 | 73 | 1012.4 |
| 20260506214540 | 63 | 194 | 6.1 | 10.4 | 0.00 | 0.00 | 0.00 | 73 | 1012.4 |
| 20260506214020 | 63 | 179 | 5.2 | 9.6 | 0.00 | 0.00 | 0.00 | 73 | 1012.4 |
| 20260506213528 | 64 | 255 | 5.2 | 12.2 | 0.00 | 0.00 | 0.00 | 73 | 1012.3 |
| 20260506213014 | 64 | 207 | 5.2 | 12.2 | 0.00 | 0.00 | 0.00 | 73 | 1012.2 |
| 20260506212515 | 64 | 261 | 6.1 | 11.3 | 0.00 | 0.00 | 0.00 | 72 | 1012.3 |
| 20260506212015 | 64 | 188 | 5.2 | 11.3 | 0.00 | 0.00 | 0.00 | 73 | 1012.2 |
| 20260506211523 | 64 | 191 | 5.2 | 11.3 | 0.00 | 0.00 | 0.00 | 72 | 1012.0 |
| 20260506211025 | 64 | 212 | 6.1 | 12.2 | 0.00 | 0.00 | 0.00 | 72 | 1012.1 |
| 20260506210532 | 64 | 231 | 6.1 | 12.2 | 0.00 | 0.00 | 0.00 | 72 | 1012.0 |
| 20260506210035 | 64 | 131 | 7.0 | 11.3 | 0.00 | 0.00 | 0.00 | 73 | 1012.0 |
| 20260506205514 | 64 | 184 | 6.1 | 11.3 | 0.00 | 0.00 | 0.00 | 72 | 1012.0 |
| 20260506205022 | 64 | 207 | 5.2 | 11.3 | 0.00 | 0.00 | 0.00 | 72 | 1012.0 |
| 20260506204523 | 64 | 238 | 6.1 | 10.4 | 0.00 | 0.00 | 0.00 | 74 | 1011.8 |
| 20260506204025 | 64 | 252 | 5.2 | 10.4 | 0.00 | 0.00 | 0.00 | 75 | 1011.8 |
| 20260506203532 | 64 | 187 | 5.2 | 11.3 | 0.00 | 0.00 | 0.00 | 75 | 1011.8 |
| 20260506203035 | 64 | 246 | 5.2 | 11.3 | 0.00 | 0.00 | 0.00 | 75 | 1011.8 |
| 20260506202515 | 64 | 223 | 4.3 | 9.6 | 0.00 | 0.00 | 0.00 | 75 | 1011.8 |
| 20260506202044 | 64 | 215 | 5.2 | 10.4 | 0.00 | 0.00 | 0.00 | 74 | 1011.8 |